This is the latest recevied weather packets stored in our database for station/object 4S6DRJ-13. If no packets are shown the sender has not sent any weather packets the latest 10 day(s).
| Time | Temp. | Humidity | Pressure | Rain* | Wind** | Luminosity | Snow |
|---|---|---|---|---|---|---|---|
| 1787720490 | 29.44° C | 77% | 1011.8 hPa | 0 mm | 1.34 m/s, 301° | 560 W/m² | - |
| 1787720430 | 29.44° C | 78% | 1011.6 hPa | 0 mm | 0.89 m/s, 236° | 807 W/m² | - |
| 1787720368 | 29.44° C | 77% | 1011.5 hPa | 0 mm | 2.24 m/s, 277° | 710 W/m² | - |
| 1787720307 | 29.44° C | 78% | 1011.7 hPa | 0 mm | 1.34 m/s, 234° | 738 W/m² | - |
| 1787720246 | 29.44° C | 78% | 1011.7 hPa | 0 mm | 0.89 m/s, 249° | 719 W/m² | - |
| 1787720185 | 29.44° C | 78% | 1011.7 hPa | 0 mm | 1.34 m/s, 219° | 494 W/m² | - |
| 1787720124 | 29.44° C | 78% | 1011.9 hPa | 0 mm | 0.89 m/s, 259° | 627 W/m² | - |
| 1787720063 | 29.44° C | 78% | 1011.5 hPa | 0 mm | 1.34 m/s, 347° | 708 W/m² | - |
| 1787720002 | 29.44° C | 78% | 1011.7 hPa | 0 mm | 1.34 m/s, 204° | 633 W/m² | - |
| 1787719941 | 29.44° C | 79% | 1011.9 hPa | 0 mm | 0.45 m/s, 223° | 519 W/m² | - |
| 1787719880 | 29.44° C | 78% | 1011.7 hPa | 0 mm | 1.34 m/s, 220° | 644 W/m² | - |
| 1787719819 | 29.44° C | 79% | 1011.7 hPa | 0 mm | 0.89 m/s, 308° | 616 W/m² | - |
| 1787719759 | 29.44° C | 79% | 1011.7 hPa | 0 mm | 0.45 m/s, 228° | 443 W/m² | - |
| 1787719697 | 29.44° C | 79% | 1011.7 hPa | 0 mm | 2.24 m/s, 232° | 535 W/m² | - |
| 1787719636 | 29.44° C | 80% | 1011.8 hPa | 0 mm | 0.89 m/s, 243° | 678 W/m² | - |
| 1787719575 | 29.44° C | 79% | 1011.7 hPa | 0 mm | 0.89 m/s, 240° | 683 W/m² | - |
| 1787719514 | 29.44° C | 79% | 1011.6 hPa | 0 mm | 2.24 m/s, 250° | 557 W/m² | - |
| 1787719453 | 29.44° C | 79% | 1011.8 hPa | 0 mm | 1.34 m/s, 250° | 604 W/m² | - |
| 1787719393 | 29.44° C | 79% | 1011.7 hPa | 0 mm | 2.24 m/s, 106° | 672 W/m² | - |
| 1787719331 | 28.89° C | 79% | 1011.8 hPa | 0 mm | 2.24 m/s, 171° | 655 W/m² | - |
| 1787719270 | 28.89° C | 79% | 1011.8 hPa | 0 mm | 0.89 m/s, 301° | 628 W/m² | - |
| 1787719209 | 28.89° C | 80% | 1012 hPa | 0 mm | 1.34 m/s, 226° | 633 W/m² | - |
| 1787719148 | 28.89° C | 80% | 1011.8 hPa | 0 mm | 0.89 m/s, 281° | 611 W/m² | - |
| 1787719087 | 28.89° C | 80% | 1011.9 hPa | 0 mm | 1.79 m/s, 221° | 607 W/m² | - |
| 1787719026 | 28.89° C | 80% | 1012 hPa | 0 mm | 1.79 m/s, 191° | 629 W/m² | - |
* Rain latest hour (hover to see other rain measurements)
** Current wind speed in m/s (hover to see current wind gust speed)